sat.trackr.live / text

‹ back to catalog

CTC-0

NORAD 62401 · 2024-247AA

PAYLOAD ACTIVE UNKNOWN

§ Identity

Operator
Country
US
Launch date
2024-12-21
Launch site
AFWTR
Launch vehicle
Mass (kg)
RCS (m²)

External: N2YO · Heavens-Above · Gunter

§ Orbital elements

Epoch: 2026-09-22T21:15:58.836960Z

Period
93.34 min
Inclination
44.9711°
Eccentricity
0.0005115
Mean motion
15.42734534 rev/d
Perigee alt
434.6 km
Apogee alt
441.5 km
Semi-major
6,816.2 km
B*
2.9332e-4
RAAN
85.4022°
Arg perigee
191.0232°
Mean anomaly
169.0545°
Rev number
9,829

§ Raw data

CTC-01 62401U 24247AA  26265.88609765  .00012769  00000+0  29332-3 0  99982 62401  44.9711  85.4022 0005115 191.0232 169.0545 15.42734534 98298

JSON: /api/v1/satellites/62401 · /tle

For live sub-satellite position, see the globe view (requires WebGL).

§ Visibility from observer

Set your observer location to see the next 7 days of passes ≥ 10°. The values pass through the URL so the page stays shareable.

No JS? Fill the form by hand. The geolocation button needs JavaScript.

§ Radio — SatNOGS DB

ModeDescriptionDownlinkUplink
4FSK Mode S - FSK 62.5 Kbps 2.241 GHz
QPSK Mode S - QPSK 200Kbps 2.185 GHz
GFSK Mode U - GFSK4k8 401.500 MHz

3 transmitters · refreshed weekly from db.satnogs.org